Location: Mascot Post Office (historical)
(40.2645°N, 99.5462°W)
Time: 02:31:59
(UTC+00:00)

Cosmos 2322 Rocket - Pass Details

Date: 14 July 2020
Orbit: 832 x 851 km, 71.0° (Epoch: 14 August)

Event Time Altitude Azimuth Distance (km) Brightness Sun altitude
Rises 09:32:19 0° 346° (NNW) 3,404 5.9 -16.8°
Reaches altitude 10° 09:35:11 10° 359° (N) 2,469 5.3 -16.5°
Maximum altitude 09:39:54 26° 55° (NE) 1,593 4.5 -15.9°
Drops below altitude 10° 09:44:37 10° 112° (ESE) 2,468 4.9 -15.3°
Sets 09:47:27 0° 125° (SE) 3,403 5.5 -14.9°
